TimeMDT,TemperatureF,Dew PointF,Humidity,Sea Level PressureIn,VisibilityMPH,Wind Direction,Wind SpeedMPH,Gust SpeedMPH,PrecipitationIn,Events,Conditions,WindDirDegrees,DateUTC
12:53 AM,69.1,35.1,29,29.82,10.0,SSW,3.5,-,N/A,,Clear,210,2013-07-03 06:53:00
1:53 AM,73.0,32.0,22,29.80,10.0,SE,5.8,-,N/A,,Clear,130,2013-07-03 07:53:00
2:53 AM,71.1,33.1,25,29.81,10.0,SSE,4.6,-,N/A,,Clear,150,2013-07-03 08:53:00
3:53 AM,64.0,33.1,31,29.82,10.0,SSW,5.8,-,N/A,,Clear,210,2013-07-03 09:53:00
4:53 AM,66.9,30.9,26,29.83,10.0,SE,4.6,-,N/A,,Clear,140,2013-07-03 10:53:00
5:53 AM,68.0,30.0,24,29.83,10.0,SE,8.1,-,N/A,,Clear,140,2013-07-03 11:53:00
6:53 AM,69.1,28.9,22,29.85,10.0,SE,6.9,-,N/A,,Clear,140,2013-07-03 12:53:00
7:53 AM,72.0,34.0,25,29.85,10.0,NE,3.5,-,N/A,,Clear,40,2013-07-03 13:53:00
8:53 AM,75.0,35.1,23,29.87,10.0,NNE,5.8,-,N/A,,Clear,20,2013-07-03 14:53:00
9:53 AM,84.9,27.0,12,29.86,10.0,NNW,5.8,-,N/A,,Clear,340,2013-07-03 15:53:00
10:53 AM,88.0,32.0,14,29.85,10.0,NNW,4.6,-,N/A,,Clear,340,2013-07-03 16:53:00
11:53 AM,91.0,33.1,13,29.83,10.0,NE,6.9,-,N/A,,Clear,50,2013-07-03 17:53:00
12:53 PM,96.1,35.1,12,29.81,10.0,NNW,10.4,16.1,N/A,,Clear,330,2013-07-03 18:53:00
1:53 PM,97.0,34.0,11,29.78,10.0,North,9.2,18.4,N/A,,Clear,350,2013-07-03 19:53:00
2:53 PM,98.1,34.0,11,29.76,10.0,North,11.5,-,N/A,,Clear,350,2013-07-03 20:53:00
3:53 PM,98.1,30.9,9,29.75,10.0,North,8.1,-,N/A,,Clear,10,2013-07-03 21:53:00
4:53 PM,99.0,28.9,8,29.72,10.0,NW,9.2,-,N/A,,Clear,320,2013-07-03 22:53:00
5:53 PM,98.1,26.1,8,29.69,10.0,North,4.6,17.3,N/A,,Clear,10,2013-07-03 23:53:00
6:53 PM,97.0,32.0,10,29.68,10.0,North,10.4,-,N/A,,Clear,360,2013-07-04 00:53:00
7:53 PM,91.0,36.0,14,29.69,10.0,North,8.1,-,N/A,,Clear,360,2013-07-04 01:53:00
8:53 PM,82.9,37.9,20,29.72,10.0,NE,5.8,-,N/A,,Clear,50,2013-07-04 02:53:00
9:53 PM,78.1,36.0,22,29.72,10.0,Calm,Calm,-,N/A,,Clear,0,2013-07-04 03:53:00
10:53 PM,82.9,39.0,21,29.73,10.0,NW,11.5,19.6,N/A,,Clear,320,2013-07-04 04:53:00
11:44 PM,78.8,39.2,24,30.07,10.0,Calm,Calm,-,N/A,Thunderstorm,Thunderstorm,0,2013-07-04 05:44:00
11:53 PM,81.0,39.9,23,29.77,10.0,ESE,3.5,-,N/A,,Partly Cloudy,120,2013-07-04 05:53:00